Time,TemperatureF,DewpointF,PressureIn,WindDirection,WindDirectionDegrees,WindSpeedMPH,WindSpeedGustMPH,Humidity,HourlyPrecipIn,Conditions,Clouds,dailyrainin,SoftwareType,DateUTC
2013-03-09 00:04:00,50.6,35.0,30.17,ENE,62,0.0,2.0,56,0.00,,,0.00,weatherlink.com 1.10,2013-03-09 06:04:00,
2013-03-09 00:19:00,49.7,37.0,30.17,NE,50,0.0,1.0,63,0.00,,,0.00,weatherlink.com 1.10,2013-03-09 06:19:00,
2013-03-09 00:34:00,48.3,37.0,30.17,NNE,31,0.0,1.0,64,0.00,,,0.00,weatherlink.com 1.10,2013-03-09 06:34:00,
2013-03-09 00:49:00,45.7,38.0,30.17,SE,136,0.0,0.0,75,0.00,,,0.00,weatherlink.com 1.10,2013-03-09 06:49:00,
2013-03-09 01:04:00,44.6,38.0,30.17,SE,136,0.0,0.0,77,0.00,,,0.00,weatherlink.com 1.10,2013-03-09 07:04:00,
2013-03-09 01:19:00,43.2,36.0,30.17,SE,136,0.0,0.0,77,0.00,,,0.00,weatherlink.com 1.10,2013-03-09 07:19:00,
2013-03-09 01:34:00,42.3,36.0,30.17,SE,136,0.0,0.0,78,0.00,,,0.00,weatherlink.com 1.10,2013-03-09 07:34:00,
2013-03-09 01:49:00,41.8,36.0,30.17,SE,136,0.0,0.0,81,0.00,,,0.00,weatherlink.com 1.10,2013-03-09 07:49:00,
2013-03-09 02:04:00,41.8,37.0,30.16,NNE,29,0.0,1.0,84,0.00,,,0.00,weatherlink.com 1.10,2013-03-09 08:04:00,
2013-03-09 02:19:00,41.6,38.0,30.16,NNE,26,0.0,0.0,88,0.00,,,0.00,weatherlink.com 1.10,2013-03-09 08:19:00,
2013-03-09 02:34:00,41.3,38.0,30.16,NNE,26,0.0,0.0,89,0.00,,,0.00,weatherlink.com 1.10,2013-03-09 08:34:00,
2013-03-09 02:49:00,41.3,38.0,30.16,NNE,23,0.0,0.0,89,0.00,,,0.00,weatherlink.com 1.10,2013-03-09 08:49:00,
2013-03-09 03:04:00,41.7,39.0,30.16,NNE,23,0.0,0.0,89,0.00,,,0.00,weatherlink.com 1.10,2013-03-09 09:04:00,
2013-03-09 03:19:00,42.2,39.0,30.16,NNE,23,0.0,0.0,89,0.00,,,0.00,weatherlink.com 1.10,2013-03-09 09:19:00,
2013-03-09 03:34:00,42.2,39.0,30.16,NNE,23,0.0,0.0,89,0.00,,,0.00,weatherlink.com 1.10,2013-03-09 09:34:00,
2013-03-09 03:49:00,42.1,39.0,30.16,NNE,23,0.0,0.0,90,0.00,,,0.00,weatherlink.com 1.10,2013-03-09 09:49:00,
2013-03-09 04:04:00,42.0,40.0,30.17,NNE,23,0.0,0.0,91,0.00,,,0.00,weatherlink.com 1.10,2013-03-09 10:04:00,
2013-03-09 04:19:00,41.5,39.0,30.18,NNE,23,0.0,0.0,90,0.00,,,0.00,weatherlink.com 1.10,2013-03-09 10:19:00,
2013-03-09 04:34:00,41.6,39.0,30.18,NNE,25,0.0,0.0,91,0.00,,,0.00,weatherlink.com 1.10,2013-03-09 10:34:00,
2013-03-09 04:49:00,41.2,39.0,30.18,NNE,25,0.0,0.0,91,0.00,,,0.00,weatherlink.com 1.10,2013-03-09 10:49:00,
2013-03-09 05:04:00,40.7,39.0,30.18,NNE,23,0.0,0.0,93,0.00,,,0.00,weatherlink.com 1.10,2013-03-09 11:04:00,
2013-03-09 05:19:00,40.9,39.0,30.18,NNE,16,1.0,1.0,92,0.00,,,0.00,weatherlink.com 1.10,2013-03-09 11:19:00,
2013-03-09 05:35:00,44.3,39.0,30.18,NNE,30,0.0,2.0,81,0.00,,,0.00,weatherlink.com 1.10,2013-03-09 11:35:00,
2013-03-09 05:50:00,44.6,38.0,30.19,ESE,103,0.0,1.0,79,0.00,,,0.00,weatherlink.com 1.10,2013-03-09 11:50:00,
2013-03-09 06:05:00,42.7,39.0,30.20,ESE,103,0.0,0.0,86,0.00,,,0.00,weatherlink.com 1.10,2013-03-09 12:05:00,
2013-03-09 06:20:00,42.7,38.0,30.19,NE,39,0.0,1.0,84,0.00,,,0.00,weatherlink.com 1.10,2013-03-09 12:20:00,
2013-03-09 06:35:00,45.9,39.0,30.19,NNE,13,1.0,4.0,77,0.00,,,0.00,weatherlink.com 1.10,2013-03-09 12:35:00,
2013-03-09 06:50:00,47.9,39.0,30.20,NE,51,1.0,6.0,71,0.00,,,0.00,weatherlink.com 1.10,2013-03-09 12:50:00,
2013-03-09 07:05:00,49.0,40.0,30.21,ENE,68,0.0,3.0,70,0.00,,,0.00,weatherlink.com 1.10,2013-03-09 13:05:00,
2013-03-09 07:20:00,50.8,41.0,30.21,ENE,76,0.0,3.0,68,0.00,,,0.00,weatherlink.com 1.10,2013-03-09 13:20:00,
2013-03-09 07:35:00,52.3,42.0,30.21,East,81,2.0,5.0,67,0.00,,,0.00,weatherlink.com 1.10,2013-03-09 13:35:00,
2013-03-09 07:50:00,53.0,41.0,30.22,NE,54,3.0,5.0,65,0.00,,,0.00,weatherlink.com 1.10,2013-03-09 13:50:00,
2013-03-09 08:05:00,53.6,42.0,30.22,ESE,102,2.0,4.0,65,0.00,,,0.00,weatherlink.com 1.10,2013-03-09 14:05:00,
2013-03-09 08:20:00,54.1,42.0,30.22,East,92,0.0,5.0,65,0.00,,,0.00,weatherlink.com 1.10,2013-03-09 14:20:00,
2013-03-09 08:35:00,56.1,43.0,30.23,SSW,212,2.0,5.0,62,0.00,,,0.00,weatherlink.com 1.10,2013-03-09 14:35:00,
2013-03-09 08:50:00,58.3,44.0,30.23,East,101,4.0,7.0,60,0.00,,,0.00,weatherlink.com 1.10,2013-03-09 14:50:00,
2013-03-09 09:05:00,59.9,44.0,30.23,WSW,243,2.0,10.0,56,0.00,,,0.00,weatherlink.com 1.10,2013-03-09 15:05:00,
2013-03-09 09:20:00,61.1,45.0,30.23,ESE,108,3.0,8.0,56,0.00,,,0.00,weatherlink.com 1.10,2013-03-09 15:20:00,
2013-03-09 09:35:00,62.7,44.0,30.23,East,91,7.0,11.0,50,0.00,,,0.00,weatherlink.com 1.10,2013-03-09 15:35:00,
2013-03-09 09:50:00,63.9,43.0,30.23,ESE,116,9.0,10.0,46,0.00,,,0.00,weatherlink.com 1.10,2013-03-09 15:50:00,
2013-03-09 10:05:00,64.6,42.0,30.23,ESE,120,4.0,14.0,44,0.00,,,0.00,weatherlink.com 1.10,2013-03-09 16:05:00,
2013-03-09 10:20:00,65.0,43.0,30.22,ENE,67,2.0,13.0,45,0.00,,,0.00,weatherlink.com 1.10,2013-03-09 16:20:00,
2013-03-09 10:35:00,66.1,42.0,30.22,ENE,65,4.0,10.0,42,0.00,,,0.00,weatherlink.com 1.10,2013-03-09 16:35:00,
2013-03-09 10:50:00,66.1,43.0,30.21,NNE,13,0.0,11.0,43,0.00,,,0.00,weatherlink.com 1.10,2013-03-09 16:50:00,
2013-03-09 11:05:00,68.2,44.0,30.21,ESE,111,2.0,9.0,42,0.00,,,0.00,weatherlink.com 1.10,2013-03-09 17:05:00,
2013-03-09 11:21:00,68.8,43.0,30.21,ESE,109,8.0,10.0,39,0.00,,,0.00,weatherlink.com 1.10,2013-03-09 17:21:00,
2013-03-09 11:36:00,69.0,42.0,30.20,ESE,121,2.0,8.0,38,0.00,,,0.00,weatherlink.com 1.10,2013-03-09 17:36:00,
2013-03-09 11:51:00,69.4,43.0,30.19,ESE,105,4.0,10.0,38,0.00,,,0.00,weatherlink.com 1.10,2013-03-09 17:51:00,
2013-03-09 12:06:00,69.7,42.0,30.19,East,89,10.0,11.0,37,0.00,,,0.00,weatherlink.com 1.10,2013-03-09 18:06:00,
2013-03-09 12:21:00,70.4,43.0,30.18,SSE,167,6.0,7.0,38,0.00,,,0.00,weatherlink.com 1.10,2013-03-09 18:21:00,
2013-03-09 12:36:00,70.6,43.0,30.18,East,89,5.0,9.0,37,0.00,,,0.00,weatherlink.com 1.10,2013-03-09 18:36:00,
2013-03-09 12:51:00,70.7,43.0,30.16,NE,53,0.0,5.0,37,0.00,,,0.00,weatherlink.com 1.10,2013-03-09 18:51:00,
2013-03-09 13:06:00,69.9,43.0,30.16,SE,141,0.0,8.0,38,0.00,,,0.00,weatherlink.com 1.10,2013-03-09 19:06:00,
2013-03-09 13:21:00,70.9,44.0,30.15,East,89,2.0,7.0,38,0.00,,,0.00,weatherlink.com 1.10,2013-03-09 19:21:00,
2013-03-09 13:36:00,70.9,44.0,30.15,NE,51,2.0,5.0,38,0.00,,,0.00,weatherlink.com 1.10,2013-03-09 19:36:00,
2013-03-09 13:51:00,70.9,45.0,30.14,ESE,108,5.0,7.0,40,0.00,,,0.00,weatherlink.com 1.10,2013-03-09 19:51:00,
2013-03-09 14:06:00,71.3,45.0,30.14,South,169,4.0,7.0,39,0.00,,,0.00,weatherlink.com 1.10,2013-03-09 20:06:00,
2013-03-09 14:21:00,70.4,44.0,30.15,ESE,121,5.0,5.0,39,0.00,,,0.00,weatherlink.com 1.10,2013-03-09 20:21:00,
2013-03-09 14:36:00,70.8,44.0,30.15,SSW,196,1.0,5.0,38,0.00,,,0.00,weatherlink.com 1.10,2013-03-09 20:36:00,
2013-03-09 14:51:00,71.1,44.0,30.15,SE,134,5.0,6.0,38,0.00,,,0.00,weatherlink.com 1.10,2013-03-09 20:51:00,
2013-03-09 15:06:00,70.3,43.0,30.15,NE,56,3.0,6.0,37,0.00,,,0.00,weatherlink.com 1.10,2013-03-09 21:06:00,
2013-03-09 15:21:00,70.5,44.0,30.14,SSE,166,2.0,4.0,39,0.00,,,0.00,weatherlink.com 1.10,2013-03-09 21:21:00,
2013-03-09 15:36:00,69.7,44.0,30.14,SSE,166,1.0,5.0,39,0.00,,,0.00,weatherlink.com 1.10,2013-03-09 21:36:00,
2013-03-09 15:51:00,69.9,44.0,30.14,SE,138,3.0,7.0,40,0.00,,,0.00,weatherlink.com 1.10,2013-03-09 21:51:00,
2013-03-09 16:06:00,69.2,43.0,30.13,NNE,30,1.0,6.0,39,0.00,,,0.00,weatherlink.com 1.10,2013-03-09 22:06:00,
2013-03-09 16:21:00,68.6,43.0,30.13,SSE,152,1.0,7.0,40,0.00,,,0.00,weatherlink.com 1.10,2013-03-09 22:21:00,
2013-03-09 16:36:00,68.3,44.0,30.13,SE,127,2.0,4.0,41,0.00,,,0.00,weatherlink.com 1.10,2013-03-09 22:36:00,
2013-03-09 16:51:00,67.9,43.0,30.13,East,96,2.0,4.0,41,0.00,,,0.00,weatherlink.com 1.10,2013-03-09 22:51:00,
2013-03-09 17:06:00,67.3,44.0,30.13,NE,49,3.0,5.0,43,0.00,,,0.00,weatherlink.com 1.10,2013-03-09 23:06:00,
2013-03-09 17:21:00,66.5,44.0,30.14,ESE,113,0.0,4.0,45,0.00,,,0.00,weatherlink.com 1.10,2013-03-09 23:21:00,
2013-03-09 17:36:00,65.5,44.0,30.14,ESE,115,1.0,4.0,46,0.00,,,0.00,weatherlink.com 1.10,2013-03-09 23:36:00,
2013-03-09 17:51:00,64.4,45.0,30.14,ESE,103,0.0,1.0,49,0.00,,,0.00,weatherlink.com 1.10,2013-03-09 23:51:00,
2013-03-09 18:06:00,63.2,45.0,30.13,ENE,58,0.0,1.0,51,0.00,,,0.00,weatherlink.com 1.10,2013-03-10 00:06:00,
2013-03-09 18:21:00,62.2,44.0,30.13,ESE,117,0.0,1.0,52,0.00,,,0.00,weatherlink.com 1.10,2013-03-10 00:21:00,
2013-03-09 18:36:00,60.5,46.0,30.13,ESE,113,0.0,3.0,59,0.00,,,0.00,weatherlink.com 1.10,2013-03-10 00:36:00,
2013-03-09 18:51:00,59.8,45.0,30.14,SSW,207,0.0,1.0,58,0.00,,,0.00,weatherlink.com 1.10,2013-03-10 00:51:00,
2013-03-09 19:06:00,58.6,45.0,30.14,ESE,114,0.0,0.0,62,0.00,,,0.00,weatherlink.com 1.10,2013-03-10 01:06:00,
2013-03-09 19:21:00,57.6,46.0,30.13,ESE,115,0.0,0.0,66,0.00,,,0.00,weatherlink.com 1.10,2013-03-10 01:21:00,
2013-03-09 19:36:00,56.9,47.0,30.12,ESE,115,0.0,0.0,69,0.00,,,0.00,weatherlink.com 1.10,2013-03-10 01:36:00,
2013-03-09 19:51:00,56.3,47.0,30.12,SSE,159,0.0,0.0,71,0.00,,,0.00,weatherlink.com 1.10,2013-03-10 01:51:00,
2013-03-09 20:06:00,55.4,48.0,30.12,SSE,160,0.0,0.0,75,0.00,,,0.00,weatherlink.com 1.10,2013-03-10 02:06:00,
2013-03-09 20:21:00,55.3,48.0,30.13,SE,143,0.0,0.0,76,0.00,,,0.00,weatherlink.com 1.10,2013-03-10 02:21:00,
2013-03-09 20:36:00,55.7,48.0,30.12,ESE,110,0.0,1.0,76,0.00,,,0.00,weatherlink.com 1.10,2013-03-10 02:36:00,
2013-03-09 20:51:00,57.5,49.0,30.12,East,80,1.0,4.0,73,0.00,,,0.00,weatherlink.com 1.10,2013-03-10 02:51:00,
2013-03-09 21:06:00,58.6,48.0,30.11,ESE,117,3.0,7.0,69,0.00,,,0.00,weatherlink.com 1.10,2013-03-10 03:06:00,
2013-03-09 21:21:00,58.3,49.0,30.12,WSW,256,0.0,5.0,70,0.00,,,0.00,weatherlink.com 1.10,2013-03-10 03:21:00,
2013-03-09 21:36:00,57.5,48.0,30.12,SSE,160,0.0,3.0,71,0.00,,,0.00,weatherlink.com 1.10,2013-03-10 03:36:00,
2013-03-09 21:51:00,56.9,48.0,30.12,SW,221,0.0,2.0,73,0.00,,,0.00,weatherlink.com 1.10,2013-03-10 03:51:00,
2013-03-09 22:06:00,56.1,48.0,30.12,South,177,0.0,0.0,75,0.00,,,0.00,weatherlink.com 1.10,2013-03-10 04:06:00,
2013-03-09 22:21:00,54.7,48.0,30.12,South,184,0.0,0.0,78,0.00,,,0.00,weatherlink.com 1.10,2013-03-10 04:21:00,
2013-03-09 22:36:00,53.4,47.0,30.11,South,183,0.0,0.0,80,0.00,,,0.00,weatherlink.com 1.10,2013-03-10 04:36:00,
2013-03-09 22:51:00,52.5,48.0,30.11,South,180,0.0,0.0,83,0.00,,,0.00,weatherlink.com 1.10,2013-03-10 04:51:00,
2013-03-09 23:06:00,51.6,47.0,30.10,South,179,0.0,0.0,84,0.00,,,0.00,weatherlink.com 1.10,2013-03-10 05:06:00,
2013-03-09 23:21:00,50.6,47.0,30.10,South,191,0.0,0.0,86,0.00,,,0.00,weatherlink.com 1.10,2013-03-10 05:21:00,
2013-03-09 23:36:00,50.5,47.0,30.10,East,84,0.0,0.0,86,0.00,,,0.00,weatherlink.com 1.10,2013-03-10 05:36:00,
2013-03-09 23:51:00,51.6,46.0,30.09,NNE,20,0.0,2.0,82,0.00,,,0.00,weatherlink.com 1.10,2013-03-10 05:51:00,